Albion, NE

12:21 AM CST on December 09, 2016 (GMT -0600)
Albion Municipal

Weather History for KBVN - October, 2013

Change the Weather History Date:

Monday, October 7, 2013

  Actual Average (KOFK) Record (KOFK)
Temperature  
Mean Temperature 54 °F -  
Max Temperature 74 °F 68 °F 91 °F (1980)
Min Temperature 33 °F 40 °F 18 °F (2012)
Degree Days  
Heating Degree Days 12    
Growing Degree Days 4 (Base 50)    
Moisture  
Dew Point 39 °F    
Average Humidity 61    
Maximum Humidity 92    
Minimum Humidity 29    
Precipitation  
Precipitation 0.00 in - - ()
Sea Level Pressure  
Sea Level Pressure 30.02 in    
Wind  
Wind Speed 5 mph (SSW)    
Max Wind Speed 13 mph    
Max Gust Speed 17 mph    
Visibility 10 miles    
Events      
Averages and records for this station are not official NWS values.
T = Trace of Precipitation, MM = Missing Value Source: NWS Daily Summary

Daily Weather History Graph

Daily Weather History Graph

Search for Another Location

Airport or City:

Trip Planner

Search our weather history database for the weather conditions in past years. The results will help you decide how hot, cold, wet, or windy it might be!

Date:

Astronomy

Oct. 07, 2013 Rise Set
Actual Time 7:35 AM CDT 7:03 PM CDT
Civil Twilight 7:08 AM CDT 7:31 PM CDT
Nautical Twilight 6:35 AM CDT 8:03 PM CDT
Astronomical Twilight 6:03 AM CDT 8:35 PM CDT
Moon 10:29 AM CDT (10/7) 8:46 PM CDT (10/7)
Length of Visible Light 12h 23m
Length of Day
11h 27m
Waxing Crescent, 9% of the Moon is Illuminated
Oct 7
Waxing Crescent
Oct 11
First Quarter
Oct 18
Full
Oct 26
Last Quarter
Nov 3
New

Hourly Weather History & Observations

Time (CDT) Temp. Windchill Dew Point Humidity Pressure Visibility Wind Dir Wind Speed Gust Speed Precip Events Conditions
12:15 AM 43.3 °F 39.9 °F 35.8 °F 75% 30.07 in 10.0 mi NW 5.8 mph - N/A   Clear
12:35 AM 42.1 °F 37.7 °F 35.6 °F 78% 30.06 in 10.0 mi NNW 6.9 mph - N/A   Clear
12:55 AM 43.3 °F 39.2 °F 35.6 °F 74% 30.06 in 10.0 mi NNW 6.9 mph - N/A   Clear
1:15 AM 44.1 °F 40.8 °F 35.6 °F 72% 30.05 in 10.0 mi NNW 5.8 mph - N/A   Clear
1:35 AM 41.7 °F 38.0 °F 35.4 °F 78% 30.06 in 10.0 mi NW 5.8 mph - N/A   Clear
1:55 AM 41.9 °F 38.2 °F 35.2 °F 77% 30.06 in 10.0 mi NNW 5.8 mph - N/A   Clear
2:15 AM 41.5 °F 37.8 °F 34.9 °F 77% 30.06 in 10.0 mi NNW 5.8 mph - N/A   Clear
2:35 AM 39.9 °F 36.7 °F 34.7 °F 82% 30.07 in 10.0 mi NW 4.6 mph - N/A   Clear
2:55 AM 38.5 °F 35.0 °F 34.3 °F 85% 30.06 in 10.0 mi North 4.6 mph - N/A   Clear
3:15 AM 39.6 °F 36.3 °F 33.8 °F 80% 30.06 in 10.0 mi NNW 4.6 mph - N/A   Clear
3:35 AM 38.5 °F 36.1 °F 34.0 °F 84% 30.06 in 10.0 mi NNW 3.5 mph - N/A   Clear
3:55 AM 35.8 °F - 32.5 °F 88% 30.05 in 10.0 mi Calm Calm - N/A   Clear
4:15 AM 35.8 °F - 33.1 °F 90% 30.05 in 10.0 mi Calm Calm - N/A   Clear
4:35 AM 35.6 °F - 33.3 °F 91% 30.06 in 10.0 mi Calm Calm - N/A   Clear
4:55 AM 35.1 °F - 32.2 °F 89% 30.06 in 10.0 mi Calm Calm - N/A   Clear
5:15 AM 35.1 °F - 32.2 °F 89% 30.06 in 10.0 mi Calm Calm - N/A   Clear
5:35 AM 34.9 °F - 32.4 °F 91% 30.06 in 10.0 mi Calm Calm - N/A   Clear
5:55 AM 35.4 °F - 32.7 °F 90% 30.06 in 10.0 mi Calm Calm - N/A   Clear
6:15 AM 35.6 °F - 32.2 °F 87% 30.06 in 10.0 mi Calm Calm - N/A   Clear
6:35 AM 34.9 °F - 32.2 °F 90% 30.06 in 10.0 mi Calm Calm - N/A   Clear
6:55 AM 35.6 °F - 32.5 °F 89% 30.05 in 10.0 mi Calm Calm - N/A   Clear
7:15 AM 36.5 °F - 33.4 °F 89% 30.05 in 10.0 mi Calm Calm - N/A   Clear
7:35 AM 33.8 °F - 31.6 °F 92% 30.06 in 10.0 mi Calm Calm - N/A   Clear
7:55 AM 34.2 °F - 32.0 °F 92% 30.06 in 10.0 mi Calm Calm - N/A   Clear
8:15 AM 37.4 °F - 34.3 °F 89% 30.07 in 10.0 mi Calm Calm - N/A   Clear
8:35 AM 41.4 °F - 37.2 °F 85% 30.07 in 10.0 mi Calm Calm - N/A   Clear
8:55 AM 44.1 °F - 38.5 °F 81% 30.07 in 10.0 mi Calm Calm - N/A   Clear
9:15 AM 46.8 °F - 39.6 °F 76% 30.07 in 10.0 mi Calm Calm - N/A   Clear
9:35 AM 48.6 °F - 40.8 °F 75% 30.07 in 10.0 mi Calm Calm - N/A   Clear
9:55 AM 52.2 °F - 43.0 °F 71% 30.07 in 10.0 mi Calm Calm - N/A   Clear
10:15 AM 55.0 °F - 42.1 °F 62% 30.08 in 10.0 mi Calm Calm - N/A   Clear
10:35 AM 57.7 °F - 42.6 °F 57% 30.07 in 10.0 mi Calm Calm - N/A   Clear
10:55 AM 60.8 °F - 41.4 °F 49% 30.07 in 10.0 mi SW 5.8 mph - N/A   Clear
11:15 AM 62.4 °F - 40.3 °F 44% 30.07 in 10.0 mi WSW 9.2 mph - N/A   Clear
11:35 AM 63.5 °F - 40.8 °F 43% 30.07 in 10.0 mi SW 9.2 mph - N/A   Clear
11:55 AM 64.9 °F - 40.6 °F 41% 30.06 in 10.0 mi WSW 10.4 mph - N/A   Clear
12:15 PM 66.7 °F - 38.5 °F 35% 30.05 in 10.0 mi WSW 11.5 mph - N/A   Clear
12:35 PM 67.3 °F - 37.9 °F 34% 30.05 in 10.0 mi WSW 9.2 mph - N/A   Clear
12:55 PM 69.1 °F - 38.8 °F 33% 30.04 in 10.0 mi WSW 10.4 mph - N/A   Clear
1:15 PM 69.8 °F - 38.1 °F 31% 30.03 in 10.0 mi WSW 11.5 mph - N/A   Clear
1:35 PM 70.3 °F - 37.4 °F 30% 30.02 in 10.0 mi West 8.1 mph 16.1 mph N/A   Clear
1:55 PM 70.9 °F - 39.0 °F 31% 30.01 in 10.0 mi WSW 10.4 mph 16.1 mph N/A   Clear
2:15 PM 72.0 °F - 38.1 °F 29% 30.00 in 10.0 mi SW 9.2 mph 16.1 mph N/A   Clear
2:35 PM 72.7 °F - 38.7 °F 29% 30.00 in 10.0 mi SW 11.5 mph - N/A   Clear
2:55 PM 73.0 °F - 38.8 °F 29% 29.99 in 10.0 mi SW 6.9 mph - N/A   Clear
3:15 PM 73.2 °F - 39.7 °F 30% 29.99 in 10.0 mi WSW 10.4 mph 17.3 mph N/A   Clear
3:35 PM 73.4 °F - 40.8 °F 31% 29.99 in 10.0 mi SSW 12.7 mph - N/A   Clear
3:55 PM 73.8 °F - 41.9 °F 32% 29.98 in 10.0 mi SW 10.4 mph 16.1 mph N/A   Clear
4:15 PM 73.8 °F - 41.5 °F 31% 29.98 in 10.0 mi SSW 9.2 mph 16.1 mph N/A   Clear
4:35 PM 73.9 °F - 41.5 °F 31% 29.97 in 10.0 mi SSW 8.1 mph - N/A   Clear
4:55 PM 74.1 °F - 41.9 °F 31% 29.97 in 10.0 mi SSW 10.4 mph - N/A   Clear
5:15 PM 73.9 °F - 42.1 °F 32% 29.96 in 10.0 mi SSW 8.1 mph - N/A   Clear
5:35 PM 73.4 °F - 42.1 °F 32% 29.96 in 10.0 mi SSW 8.1 mph - N/A   Clear
5:55 PM 72.7 °F - 42.1 °F 33% 29.96 in 10.0 mi SSW 8.1 mph - N/A   Clear
6:15 PM 71.2 °F - 43.0 °F 36% 29.95 in 10.0 mi South 8.1 mph - N/A   Clear
6:35 PM 68.9 °F - 44.1 °F 41% 29.96 in 10.0 mi South 4.6 mph - N/A   Clear
6:55 PM 65.5 °F - 44.6 °F 47% 29.95 in 10.0 mi SSE 5.8 mph - N/A   Clear
7:15 PM 63.7 °F - 44.8 °F 50% 29.95 in 10.0 mi SSE 4.6 mph - N/A   Clear
7:35 PM 60.4 °F - 44.8 °F 56% 29.96 in 10.0 mi SSE 3.5 mph - N/A   Clear
7:55 PM 59.2 °F - 44.6 °F 58% 29.96 in 10.0 mi SE 4.6 mph - N/A   Clear
8:15 PM 58.1 °F - 44.1 °F 60% 29.96 in 10.0 mi SE 3.5 mph - N/A   Clear
8:35 PM 57.6 °F - 44.2 °F 61% 29.96 in 10.0 mi SE 3.5 mph - N/A   Clear
8:55 PM 56.7 °F - 44.2 °F 63% 29.96 in 10.0 mi SE 4.6 mph - N/A   Clear
9:15 PM 56.3 °F - 43.9 °F 63% 29.96 in 10.0 mi SE 4.6 mph - N/A   Clear
9:35 PM 56.5 °F - 43.3 °F 61% 29.96 in 10.0 mi SSE 5.8 mph - N/A   Clear
9:55 PM 55.9 °F - 42.6 °F 61% 29.96 in 10.0 mi SE 5.8 mph - N/A   Clear
10:15 PM 56.1 °F - 41.7 °F 58% 29.96 in 10.0 mi SE 5.8 mph - N/A   Clear
10:35 PM 55.9 °F - 41.2 °F 58% 29.95 in 10.0 mi SE 5.8 mph - N/A   Clear
10:55 PM 55.6 °F - 40.5 °F 57% 29.95 in 10.0 mi SE 5.8 mph - N/A   Clear
11:15 PM 55.6 °F - 40.3 °F 56% 29.95 in 10.0 mi SE 5.8 mph - N/A   Clear
11:35 PM 54.1 °F - 40.6 °F 60% 29.94 in 10.0 mi SSE 5.8 mph - N/A   Clear
11:55 PM 54.3 °F - 40.6 °F 60% 29.94 in 10.0 mi SE 5.8 mph - N/A   Clear